Location: Newark
(34.1333°N, 7.9667°W)
Time: 02:35:51
(UTC+00:00)

deb Explorer IX - All Passes

Search period start: 04 December 2021 00:00
Search period end: 14 December 2021 00:00
Orbit: 546 x 1086 km, 38.8° (Epoch: 02 December)

Date Brightness Start Highest point End Pass type
(mag) Time Alt. Az. Time Alt. Az. Time Alt. Az.
04 Dec - 08:19:12 10° S 08:22:40 17° SE 08:25:51 10° ESE daylight
04 Dec - 10:04:07 10° WSW 10:09:07 66° SSE 10:13:29 10° ENE daylight
04 Dec - 11:51:27 10° W 11:55:52 50° N 11:59:55 10° ENE daylight
04 Dec - 13:38:47 10° WNW 13:42:53 49° N 13:46:51 10° E daylight
04 Dec - 15:25:30 10° WNW 15:29:32 60° SSW 15:33:42 10° SE daylight
04 Dec - 17:13:55 10° WSW 17:15:42 12° SW 17:17:32 10° SSW daylight
05 Dec - 07:54:01 10° S 07:57:41 18° SE 08:01:02 10° ESE daylight
05 Dec - 09:38:59 10° WSW 09:44:10 66° SSE 09:48:39 10° ENE daylight
05 Dec - 11:26:23 10° W 11:30:58 50° N 11:35:05 10° ENE daylight
05 Dec - 13:13:48 10° WNW 13:17:59 49° N 13:21:57 10° E daylight
05 Dec - 15:00:36 10° WNW 15:04:39 61° SSW 15:08:45 10° SE daylight
05 Dec - 16:49:05 10° WSW 16:50:46 12° SW 16:52:30 10° SSW daylight
06 Dec - 07:28:48 10° S 07:32:40 18° SE 07:36:13 10° ESE daylight
06 Dec - 09:13:50 10° WSW 09:19:12 66° SSE 09:23:49 10° ENE daylight
06 Dec - 11:01:17 10° W 11:06:02 52° N 11:10:14 10° ENE daylight
06 Dec - 12:48:48 10° WNW 12:53:04 49° N 12:57:04 10° E daylight
06 Dec - 14:35:39 10° WNW 14:39:44 61° SSW 14:43:48 10° SE daylight
06 Dec - 16:24:12 10° WSW 16:25:50 12° SW 16:27:30 10° SSW daylight
07 Dec - 07:03:34 10° S 07:07:38 19° SE 07:11:21 10° E daylight
07 Dec - 08:48:39 10° WSW 08:54:13 67° SSE 08:58:58 10° ENE daylight
07 Dec - 10:36:09 10° W 10:41:04 53° N 10:45:22 10° ENE daylight
07 Dec - 12:23:45 10° WNW 12:28:09 50° N 12:32:11 10° E daylight
07 Dec - 14:10:41 10° WNW 14:14:50 62° SSW 14:18:52 10° SE daylight
07 Dec - 15:59:16 10° WSW 16:00:54 12° SW 16:02:32 10° SSW daylight
08 Dec - 06:38:19 10° S 06:42:35 20° SE 06:46:29 10° E visible
08 Dec - 08:23:26 10° SW 08:29:11 67° SSE 08:34:06 10° ENE daylight
08 Dec - 10:10:59 10° W 10:16:05 54° N 10:20:32 10° ENE daylight
08 Dec - 11:58:39 10° WNW 12:03:12 50° N 12:07:17 10° E daylight
08 Dec - 13:45:40 10° WNW 13:49:55 63° SSW 13:53:57 10° SE daylight
08 Dec - 15:34:17 10° WSW 15:35:57 12° SW 15:37:37 10° SSW daylight
09 Dec - 06:13:03 10° S 06:17:30 20° SE 06:21:34 10° E visible
09 Dec - 07:58:11 10° SW 08:04:08 67° SSE 08:09:12 10° ENE daylight
09 Dec - 09:45:47 10° W 09:51:05 55° N 09:55:39 10° ENE daylight
09 Dec - 11:33:32 10° WNW 11:38:14 51° N 11:42:24 10° E daylight
09 Dec - 13:20:38 10° WNW 13:24:58 64° SSW 13:29:02 10° SE daylight
09 Dec - 15:09:15 10° WSW 15:11:00 12° SW 15:12:43 10° SSW daylight
10 Dec - 05:47:47 10° S 05:52:24 21° SE 05:56:38 10° E visible
10 Dec - 07:32:56 10° SW 07:39:04 67° SSE 07:44:18 10° ENE daylight
10 Dec - 09:20:33 10° W 09:26:03 56° N 09:30:46 10° ENE daylight
10 Dec - 11:08:22 10° WNW 11:13:15 51° N 11:17:31 10° E daylight
10 Dec - 12:55:33 10° WNW 13:00:02 66° SSW 13:04:07 10° ESE daylight
10 Dec - 14:44:10 10° WSW 14:46:01 13° SW 14:47:51 10° SSW daylight
11 Dec - 05:22:30 10° S 05:27:16 21° SE 05:31:39 10° E visible
11 Dec - 07:07:39 10° SW 07:13:58 67° SSE 07:19:21 10° ENE daylight
11 Dec - 08:55:17 10° W 09:01:00 58° N 09:05:52 10° ENE daylight
11 Dec - 10:43:10 10° WNW 10:48:14 52° N 10:52:37 10° E daylight
11 Dec - 12:30:26 10° WNW 12:35:03 67° SSW 12:39:13 10° ESE daylight
11 Dec - 14:19:02 10° WSW 14:21:03 13° SW 14:23:01 10° S daylight
12 Dec - 04:57:12 10° S 05:02:07 21° SE 05:06:39 10° E visible
12 Dec - 06:42:21 10° SW 06:48:49 67° SSE 06:54:24 10° ENE visible
12 Dec - 08:30:00 10° W 08:35:54 59° NNW 08:40:57 10° ENE daylight
12 Dec - 10:17:57 10° WNW 10:23:12 53° N 10:27:43 10° E daylight
12 Dec - 12:05:17 10° WNW 12:10:03 68° SSW 12:14:18 10° ESE daylight
12 Dec - 13:53:51 10° WSW 13:56:03 14° SW 13:58:11 10° S daylight
13 Dec - 04:31:55 10° S 04:36:56 22° SE 04:41:37 10° E visible
13 Dec - 06:17:01 10° SW 06:23:39 66° SSE 06:29:25 10° ENE visible
13 Dec - 08:04:41 10° W 08:10:48 60° NNW 08:16:00 10° ENE daylight
13 Dec - 09:52:41 10° WNW 09:58:08 54° N 10:02:48 10° E daylight
13 Dec - 11:40:06 10° WNW 11:45:03 70° SSW 11:49:23 10° ESE daylight
13 Dec - 13:28:38 10° WSW 13:31:03 14° SW 13:33:21 10° S daylight
